Tracking 29892 objects as of 21-Nov-2024
HD Live streaming from Space Station
objects crossing your sky now

GONETS M 03

Track GONETS M 03 now!
10-day predictions
GONETS M 03 is classified as:


NORAD ID: 38734
Int'l Code: 2012-041B
Perigee: 1,480.4 km
Apogee: 1,505.9 km
Inclination: 82.5 °
Period: 115.7 minutes
Semi major axis: 7864 km
RCS: 1.8381 m2 (large)
Launch date: July 28, 2012
Source: Commonwealth of Independent States (former USSR) (CIS)
Launch site: PLESETSK MISSILE AND SPACE COMPLEX (PKMTR)

Gonets-M1 is a telecoms satellites.
Your satellite tracking list
Your tracking list is empty




NASA's NSSDC Master Catalog

Two Line Element Set (TLE):
1 38734U 12041B   24326.12897886  .00000054  00000-0  30861-3 0  9999
2 38734  82.4762  63.7232 0016203 233.3881 126.5710 12.44874468559424
Source of the keplerian elements: AFSPC